Flag for Canada Weather past 2 weeks in Waterloo, Ontario, Canada

Now
64 °F

Clear.


Feels Like: 64 °F
Forecast: 62 / 83 °F
Wind: 10 mph from East

Location: Waterloo Well

Current Time: Sep 5, 2015 at 12:38:42 AM

Latest Report: Sep 5, 2015 at 12:00 AM


Visibility: 9 mi

Pressure: 30.14 "Hg

Humidity: 78%

Dew point: 57 °F

Location of WaterlooLocation

Historic Weather in Waterloo — Graph

°F

Waterloo temperature yesterday

Maximum temperature yesterday: 79 °F (at 3:00 PM)
Minimum temperature yesterday: 63 °F (at 3:00 AM)
Average temperature yesterday: 70 °F

Past Weeks' High & Low Weather Summary

 TemperatureHumidityPressure
High88 °F (Sep 2, 4:00 PM)100% (Aug 22, 1:00 AM)30.24 "Hg (Aug 22, 1:00 AM)
Low45 °F (Aug 28, 3:00 AM)43% (Aug 24, 5:00 PM)29.77 "Hg (Aug 24, 2:04 AM)
Average65 °F81%30.04 "Hg
* Reported Aug 20 11:00 PM — Sep 4 11:00 PM, Waterloo, Weather by CustomWeather, © 2015

Note: Actual official high and low records may vary slightly from our data, if they occured in-between our weather recording intervals... More about our weather records

Advertising

Waterloo weather history for previous 24 hours

 ConditionsComfort  
Time TempWeatherWind HumidityBarometerVisibility
11:00 PM
Fri, Sep 4
68 °FPassing clouds.9 mph60%30.14 "Hg9 mi
10:00 PM68 °FClear.12 mph56%30.14 "Hg9 mi
9:00 PM68 °FPassing clouds.12 mph64%30.13 "Hg9 mi
8:00 PM68 °FSunny.8 mph60%30.11 "Hg9 mi
7:00 PM72 °FSunny.7 mph57%30.10 "Hg9 mi
6:00 PM75 °FPartly sunny.10 mph54%30.09 "Hg9 mi
5:00 PM77 °FSunny.16 mph54%30.07 "Hg9 mi
4:00 PM79 °FSunny.17 mph58%30.08 "Hg9 mi
3:00 PM79 °FPartly sunny.16 mph65%30.08 "Hg9 mi
2:00 PM77 °FPassing clouds.17 mph61%30.09 "Hg9 mi
1:00 PM77 °FPartly sunny.15 mph69%30.09 "Hg9 mi
12:00 PM73 °FScattered clouds.14 mph78%30.10 "Hg9 mi
11:00 AM73 °FSunny.10 mph78%30.09 "Hg9 mi
10:00 AM72 °FScattered clouds.14 mph88%30.09 "Hg9 mi
9:00 AM72 °FFog.10 mph88%30.08 "Hg4 mi
8:00 AM68 °FFog.9 mph100%30.07 "Hg2 mi
7:00 AM68 °FFog.10 mph94%30.05 "Hg2 mi
6:00 AM66 °FFog.12 mph100%30.03 "Hg2 mi
5:00 AM64 °FFog.5 mph100%30.03 "Hg2 mi
4:00 AM63 °FFog.3 mph100%30.01 "Hg2 mi
3:59 AM63 °FFog.5 mph100%30.01 "Hg2 mi
3:00 AM63 °FFog.3 mph100%30.00 "Hg3 mi
2:00 AM64 °FPassing clouds.3 mph94%30.00 "Hg8 mi
1:00 AM64 °FPassing clouds.3 mph94%29.99 "Hg8 mi
12:03 AM64 °FFog.7 mph100%29.99 "Hg6 mi
Weather by CustomWeather, © 2015

See weather overviewHow to use our weather pages